| time (UTC) | temp C | wind direction | speed KPH | gust KPH | rain 1hr cm | rain 24hr cm | rain mn cm | humidity % | barometer mb |
| 20260504140113 | 18 | 192 | 9.7 | 29.0 | 0.00 | 0.00 | 0.00 | 55 | 1016.0 |
| 20260504120111 | 12 | 360 | 11.3 | 22.5 | 0.00 | 0.00 | 0.00 | 73 | 1017.0 |
| 20260504081555 | 10 | 186 | 14.5 | 29.0 | 0.00 | 0.00 | 0.00 | 76 | 1017.3 |
| 20260504050120 | 10 | 360 | 12.9 | 19.3 | 0.00 | 0.00 | 0.00 | 60 | 1017.4 |
| 20260504044552 | 10 | 360 | 12.9 | 19.3 | 0.00 | 0.00 | 0.00 | 60 | 1017.2 |
| 20260504043059 | 10 | 360 | 12.9 | 22.5 | 0.00 | 0.00 | 0.00 | 59 | 1017.3 |
| 20260504041549 | 9 | 360 | 9.7 | 17.7 | 0.00 | 0.00 | 0.00 | 62 | 1017.0 |
| 20260504040103 | 9 | 360 | 11.3 | 20.9 | 0.00 | 0.00 | 0.00 | 59 | 1017.1 |
| 20260504034552 | 9 | 360 | 8.0 | 16.1 | 0.00 | 0.00 | 0.00 | 58 | 1017.0 |
| 20260504033051 | 9 | 360 | 6.4 | 16.1 | 0.00 | 0.00 | 0.00 | 58 | 1016.9 |
| 20260504031623 | 10 | 360 | 9.7 | 16.1 | 0.00 | 0.00 | 0.00 | 57 | 1016.7 |
| 20260504030054 | 10 | 360 | 8.0 | 14.5 | 0.00 | 0.00 | 0.00 | 56 | 1016.8 |
| 20260504024556 | 10 | 18 | 8.0 | 16.1 | 0.00 | 0.00 | 0.00 | 56 | 1016.8 |
| 20260504023053 | 10 | 360 | 6.4 | 14.5 | 0.00 | 0.00 | 0.00 | 55 | 1016.8 |
| 20260504021554 | 10 | 16 | 8.0 | 14.5 | 0.00 | 0.00 | 0.00 | 55 | 1016.8 |
| 20260504020047 | 10 | 360 | 6.4 | 12.9 | 0.00 | 0.00 | 0.00 | 53 | 1016.7 |
| 20260504014549 | 11 | 360 | 4.8 | 9.7 | 0.00 | 0.00 | 0.00 | 52 | 1016.6 |
| 20260504013054 | 11 | 18 | 4.8 | 12.9 | 0.00 | 0.00 | 0.00 | 51 | 1016.3 |
| 20260504011556 | 11 | 360 | 4.8 | 8.0 | 0.00 | 0.00 | 0.00 | 50 | 1016.3 |
| 20260504010058 | 11 | 360 | 3.2 | 8.0 | 0.00 | 0.00 | 0.00 | 49 | 1016.3 |
| 20260504004555 | 12 | 360 | 4.8 | 9.7 | 0.00 | 0.00 | 0.00 | 48 | 1016.2 |
| 20260504003051 | 12 | 17 | 6.4 | 8.0 | 0.00 | 0.00 | 0.00 | 46 | 1015.8 |
| 20260504001608 | 13 | 16 | 3.2 | 8.0 | 0.00 | 0.00 | 0.00 | 44 | 1015.4 |
| 20260504000055 | 13 | 360 | 1.6 | 8.0 | 0.00 | 0.00 | 0.00 | 43 | 1015.2 |
| 20260503234553 | 14 | 360 | 6.4 | 16.1 | 0.00 | 0.00 | 0.00 | 41 | 1015.3 |
| 20260503233118 | 15 | 360 | 8.0 | 19.3 | 0.00 | 0.00 | 0.00 | 40 | 1015.2 |
| 20260503231554 | 15 | 318 | 14.5 | 20.9 | 0.00 | 0.00 | 0.00 | 39 | 1015.2 |
| 20260503230056 | 15 | 273 | 12.9 | 27.4 | 0.00 | 0.00 | 0.00 | 37 | 1015.2 |
| 20260503224553 | 15 | 310 | 14.5 | 25.7 | 0.00 | 0.00 | 0.00 | 37 | 1015.1 |
| 20260503223051 | 16 | 256 | 16.1 | 29.0 | 0.00 | 0.00 | 0.00 | 37 | 1015.0 |
| 20260503221549 | 15 | 297 | 11.3 | 29.0 | 0.00 | 0.00 | 0.00 | 37 | 1015.0 |
| 20260503220050 | 16 | 300 | 17.7 | 33.8 | 0.00 | 0.00 | 0.00 | 36 | 1015.0 |
| 20260503214555 | 16 | 260 | 16.1 | 30.6 | 0.00 | 0.00 | 0.00 | 35 | 1014.9 |
| 20260503213120 | 16 | 286 | 14.5 | 30.6 | 0.00 | 0.00 | 0.00 | 35 | 1014.8 |
| 20260503211617 | 16 | 263 | 12.9 | 30.6 | 0.00 | 0.00 | 0.00 | 36 | 1014.7 |
| 20260503210049 | 16 | 274 | 9.7 | 38.6 | 0.00 | 0.00 | 0.00 | 36 | 1014.7 |
| 20260503204603 | 16 | 272 | 19.3 | 32.2 | 0.00 | 0.00 | 0.00 | 34 | 1014.7 |
| 20260503203059 | 16 | 277 | 19.3 | 32.2 | 0.00 | 0.00 | 0.00 | 35 | 1014.8 |
| 20260503201552 | 16 | 292 | 14.5 | 32.2 | 0.00 | 0.00 | 0.00 | 34 | 1015.0 |
| 20260503200054 | 16 | 267 | 19.3 | 38.6 | 0.00 | 0.00 | 0.00 | 34 | 1015.2 |
| 20260503194554 | 16 | 297 | 14.5 | 29.0 | 0.00 | 0.00 | 0.00 | 34 | 1015.1 |
| 20260503193052 | 15 | 287 | 14.5 | 29.0 | 0.00 | 0.00 | 0.00 | 34 | 1015.2 |
| 20260503191605 | 15 | 265 | 19.3 | 32.2 | 0.00 | 0.00 | 0.00 | 36 | 1015.3 |
| 20260503190056 | 15 | 294 | 16.1 | 32.2 | 0.00 | 0.00 | 0.00 | 36 | 1015.5 |
| 20260503184616 | 15 | 271 | 12.9 | 27.4 | 0.00 | 0.00 | 0.00 | 36 | 1015.5 |
| 20260503183103 | 14 | 360 | 9.7 | 35.4 | 0.00 | 0.00 | 0.00 | 37 | 1015.7 |
| 20260503181554 | 14 | 360 | 19.3 | 32.2 | 0.00 | 0.00 | 0.00 | 40 | 1015.8 |
| 20260503180050 | 14 | 360 | 17.7 | 33.8 | 0.00 | 0.00 | 0.00 | 42 | 1015.9 |
| 20260503174609 | 13 | 267 | 22.5 | 38.6 | 0.00 | 0.00 | 0.00 | 44 | 1015.8 |
| 20260503173114 | 13 | 360 | 22.5 | 33.8 | 0.00 | 0.00 | 0.00 | 45 | 1015.8 |
| 20260503171550 | 13 | 240 | 17.7 | 37.0 | 0.00 | 0.00 | 0.00 | 42 | 1016.0 |